When you browse on this site, cookies collect data to enhance your experience and personalize the content and advertising you see.
Visit our Privacy Policy to learn more. By continuing to use the site, you agree to this use of cookies and data.
  • In Netherlands
  • List of Countries
  • For 7 days
  • Water Temperature
  • Satellite Maps
  • Weather Map
  • Weather Widgets
  • user-avatar
    Login

    Hourly Weather Darwin

    Today, 20 March, Wednesday

    Time Temperature Precipitation Wind Pressure Humidity
    00:00 +29°C° 0.4 mm 3 mps 756 mmHg 88%
    01:00 +29°C° 0 mm 3 mps 756 mmHg 88%
    02:00 +29°C° 0 mm 3 mps 755 mmHg 88%
    03:00 +28°C° 0 mm 3 mps 755 mmHg 88%
    04:00 +28°C° 0 mm 3 mps 755 mmHg 88%
    05:00 +28°C° 0 mm 2 mps 755 mmHg 88%
    06:00 +28°C° 0 mm 2 mps 755 mmHg 88%
    07:00 +30°C° 0 mm 3 mps 755 mmHg 82%
    08:00 +31°C° 0 mm 3 mps 756 mmHg 77%
    09:00 +34°C° 0 mm 3 mps 756 mmHg 72%
    10:00 +35°C° 0 mm 3 mps 756 mmHg 68%
    11:00 +36°C° 0 mm 4 mps 756 mmHg 64%
    12:00 +37°C° 0 mm 4 mps 756 mmHg 60%
    13:00 +36°C° 0.2 mm 4 mps 755 mmHg 62%
    14:00 +36°C° 0.2 mm 5 mps 755 mmHg 65%
    15:00 +36°C° 0.2 mm 5 mps 754 mmHg 67%
    16:00 +35°C° 0.3 mm 5 mps 754 mmHg 71%
    17:00 +34°C° 0.3 mm 5 mps 755 mmHg 75%
    18:00 +33°C° 0.3 mm 5 mps 755 mmHg 79%
    19:00 +32°C° 0.1 mm 5 mps 755 mmHg 81%
    20:00 +32°C° 0.1 mm 5 mps 755 mmHg 82%
    21:00 +30°C° 0.1 mm 5 mps 756 mmHg 83%
    22:00 +30°C° 0.3 mm 5 mps 756 mmHg 85%
    23:00 +30°C° 0.3 mm 4 mps 756 mmHg 87%

    Tomorrow, 21 March, Thursday

    Time Temperature Precipitation Wind Pressure Humidity
    00:00 +29°C° 0.3 mm 4 mps 756 mmHg 89%
    01:00 +29°C° 0.5 mm 4 mps 756 mmHg 88%
    02:00 +29°C° 0.5 mm 4 mps 755 mmHg 88%
    03:00 +29°C° 0.5 mm 4 mps 755 mmHg 87%
    04:00 +29°C° 0 mm 4 mps 755 mmHg 87%
    05:00 +29°C° 0 mm 4 mps 755 mmHg 88%
    06:00 +29°C° 0 mm 4 mps 755 mmHg 88%
    07:00 +30°C° 0.4 mm 4 mps 755 mmHg 84%
    08:00 +33°C° 0.4 mm 4 mps 755 mmHg 80%
    09:00 +34°C° 0.4 mm 4 mps 756 mmHg 76%
    10:00 +35°C° 0.6 mm 5 mps 756 mmHg 71%
    11:00 +35°C° 0.6 mm 5 mps 756 mmHg 66%
    12:00 +36°C° 0.6 mm 5 mps 755 mmHg 61%
    13:00 +36°C° 0.3 mm 5 mps 755 mmHg 60%
    14:00 +37°C° 0.3 mm 5 mps 754 mmHg 59%
    15:00 +38°C° 0.3 mm 6 mps 754 mmHg 58%
    16:00 +35°C° 0.4 mm 5 mps 754 mmHg 65%
    17:00 +34°C° 0.4 mm 5 mps 754 mmHg 72%
    18:00 +33°C° 0.4 mm 5 mps 754 mmHg 79%
    19:00 +32°C° 0.9 mm 5 mps 754 mmHg 82%
    20:00 +30°C° 0.9 mm 4 mps 755 mmHg 85%
    21:00 +30°C° 0.9 mm 4 mps 755 mmHg 88%
    22:00 +30°C° 0.9 mm 4 mps 755 mmHg 87%
    23:00 +29°C° 0.9 mm 4 mps 755 mmHg 87%

    Day after tomorrow, 22 March, Friday

    Time Temperature Precipitation Wind Pressure Humidity
    00:00 +29°C° 0.9 mm 4 mps 755 mmHg 87%
    01:00 +29°C° 0.2 mm 5 mps 755 mmHg 87%
    02:00 +29°C° 0.2 mm 5 mps 754 mmHg 87%
    03:00 +29°C° 0.2 mm 6 mps 754 mmHg 87%
    04:00 +29°C° 0 mm 6 mps 754 mmHg 86%
    05:00 +29°C° 0 mm 6 mps 754 mmHg 86%
    06:00 +29°C° 0 mm 7 mps 754 mmHg 85%
    07:00 +32°C° 0 mm 6 mps 754 mmHg 81%
    08:00 +33°C° 0 mm 6 mps 755 mmHg 76%
    09:00 +34°C° 0 mm 6 mps 755 mmHg 71%
    10:00 +35°C° 0.4 mm 6 mps 755 mmHg 70%
    11:00 +35°C° 0.4 mm 6 mps 755 mmHg 69%
    12:00 +35°C° 0.4 mm 7 mps 754 mmHg 69%
    13:00 +35°C° 0.5 mm 7 mps 753 mmHg 67%
    14:00 +35°C° 0.5 mm 7 mps 753 mmHg 65%
    15:00 +35°C° 0.5 mm 7 mps 752 mmHg 63%
    16:00 +35°C° 0 mm 7 mps 752 mmHg 68%
    17:00 +34°C° 0 mm 7 mps 752 mmHg 72%
    18:00 +33°C° 0 mm 7 mps 752 mmHg 77%
    19:00 +32°C° 0.3 mm 6 mps 752 mmHg 79%
    20:00 +32°C° 0.3 mm 6 mps 752 mmHg 81%
    21:00 +30°C° 0.3 mm 6 mps 753 mmHg 82%
    22:00 +30°C° 1.3 mm 6 mps 753 mmHg 83%
    23:00 +30°C° 1.3 mm 7 mps 753 mmHg 84%

    23 March, Saturday

    Time Temperature Precipitation Wind Pressure Humidity
    00:00 +30°C° 1.3 mm 7 mps 753 mmHg 85%
    01:00 +31°C° 0 mm 8 mps 753 mmHg 83%
    02:00 +29°C° 0 mm 8 mps 752 mmHg 80%
    03:00 +29°C° 0 mm 8 mps 751 mmHg 77%
    04:00 +29°C° 0 mm 7 mps 752 mmHg 76%
    05:00 +30°C° 0 mm 7 mps 752 mmHg 76%
    06:00 +30°C° 0 mm 6 mps 752 mmHg 76%
    07:00 +32°C° 0 mm 6 mps 753 mmHg 73%
    08:00 +33°C° 0 mm 6 mps 753 mmHg 70%
    09:00 +34°C° 0 mm 7 mps 754 mmHg 67%
    10:00 +35°C° 0.8 mm 7 mps 753 mmHg 66%
    11:00 +35°C° 0.8 mm 8 mps 753 mmHg 65%
    12:00 +35°C° 0.8 mm 8 mps 753 mmHg 64%
    13:00 +34°C° 0.3 mm 8 mps 753 mmHg 69%
    14:00 +33°C° 0.3 mm 9 mps 752 mmHg 74%
    15:00 +33°C° 0.3 mm 9 mps 752 mmHg 79%
    16:00 +32°C° 0.6 mm 8 mps 752 mmHg 81%
    17:00 +32°C° 0.6 mm 8 mps 752 mmHg 82%
    18:00 +30°C° 0.6 mm 7 mps 752 mmHg 84%
    19:00 +30°C° 0.3 mm 7 mps 753 mmHg 84%
    20:00 +30°C° 0.3 mm 7 mps 753 mmHg 84%
    21:00 +30°C° 0.3 mm 7 mps 753 mmHg 85%
    22:00 +30°C° 1 mm 7 mps 753 mmHg 86%
    23:00 +30°C° 1 mm 7 mps 754 mmHg 87%

    24 March, Sunday

    Time Temperature Precipitation Wind Pressure Humidity
    00:00 +30°C° 1 mm 7 mps 754 mmHg 89%
    01:00 +29°C° 2.9 mm 6 mps 754 mmHg 89%
    02:00 +29°C° 2.9 mm 6 mps 753 mmHg 89%
    03:00 +29°C° 2.9 mm 6 mps 753 mmHg 89%
    04:00 +29°C° 3.5 mm 6 mps 753 mmHg 89%
    05:00 +28°C° 3.5 mm 6 mps 754 mmHg 88%
    06:00 +28°C° 3.5 mm 6 mps 754 mmHg 88%
    07:00 +29°C° 3.6 mm 6 mps 754 mmHg 87%
    08:00 +29°C° 3.6 mm 6 mps 755 mmHg 86%
    09:00 +30°C° 3.6 mm 5 mps 756 mmHg 86%
    10:00 +30°C° 2.2 mm 5 mps 755 mmHg 85%
    11:00 +30°C° 2.2 mm 5 mps 755 mmHg 84%
    12:00 +30°C° 2.2 mm 5 mps 755 mmHg 84%
    13:00 +32°C° 0.5 mm 5 mps 755 mmHg 82%
    14:00 +32°C° 0.5 mm 5 mps 754 mmHg 80%
    15:00 +32°C° 0.5 mm 6 mps 754 mmHg 78%
    16:00 +32°C° 0.7 mm 5 mps 754 mmHg 80%
    17:00 +30°C° 0.7 mm 5 mps 754 mmHg 82%
    18:00 +29°C° 0.7 mm 5 mps 755 mmHg 84%
    19:00 +29°C° 0.1 mm 5 mps 755 mmHg 84%
    20:00 +29°C° 0.1 mm 4 mps 756 mmHg 85%
    21:00 +29°C° 0.1 mm 4 mps 756 mmHg 86%
    22:00 +29°C° 0.1 mm 4 mps 756 mmHg 85%
    23:00 +29°C° 0.1 mm 5 mps 756 mmHg 85%

    25 March, Monday

    Time Temperature Precipitation Wind Pressure Humidity
    00:00 +29°C° 0.1 mm 5 mps 756 mmHg 85%
    01:00 +29°C° 0.9 mm 5 mps 756 mmHg 86%
    02:00 +29°C° 0.9 mm 5 mps 755 mmHg 87%
    03:00 +29°C° 0.9 mm 5 mps 755 mmHg 88%
    04:00 +29°C° 2.5 mm 5 mps 756 mmHg 89%
    05:00 +29°C° 2.5 mm 5 mps 756 mmHg 89%
    06:00 +28°C° 2.5 mm 5 mps 757 mmHg 89%
    07:00 +29°C° 1.3 mm 4 mps 757 mmHg 87%
    08:00 +30°C° 1.3 mm 4 mps 757 mmHg 85%
    09:00 +31°C° 1.3 mm 3 mps 758 mmHg 83%
    10:00 +32°C° 0.8 mm 4 mps 757 mmHg 81%
    11:00 +33°C° 0.8 mm 4 mps 757 mmHg 79%
    12:00 +34°C° 0.8 mm 5 mps 756 mmHg 77%
    13:00 +33°C° 1.1 mm 5 mps 756 mmHg 77%
    14:00 +33°C° 1.1 mm 6 mps 756 mmHg 78%
    15:00 +33°C° 1.1 mm 6 mps 755 mmHg 78%
    16:00 +32°C° 0.3 mm 6 mps 756 mmHg 80%
    17:00 +32°C° 0.3 mm 5 mps 756 mmHg 81%
    18:00 +30°C° 0.3 mm 5 mps 757 mmHg 83%
    19:00 +30°C° 0.1 mm 4 mps 757 mmHg 83%
    20:00 +30°C° 0.1 mm 4 mps 758 mmHg 83%
    21:00 +30°C° 0.1 mm 4 mps 758 mmHg 83%
    22:00 +30°C° 0 mm 4 mps 758 mmHg 83%
    23:00 +30°C° 0 mm 4 mps 758 mmHg 83%
    Show more